When you browse on this site, cookies collect data to enhance your experience and personalize the content and advertising you see.
Visit our Privacy Policy to learn more. By continuing to use the site, you agree to this use of cookies and data.
  • en France
  • Liste des pays
  • À 7 jours
  • Température de l'eau
  • Carte satellitaire
  • Carte météo
  • Widgets météo
  • user-avatar
    Se connecter

    Météo par heure à Felling

    Ce jour, 19 Juin, Mercredi

    Heure Température Précipitation Vent Pression Humidité
    00:00 +13°C° 0 mm 1 m/s 751 mmHg 75%
    01:00 +13°C° 0 mm 1 m/s 751 mmHg 75%
    02:00 +13°C° 0 mm 1 m/s 750 mmHg 76%
    03:00 +13°C° 0 mm 1 m/s 750 mmHg 76%
    04:00 +13°C° 0.3 mm 1 m/s 750 mmHg 79%
    05:00 +12°C° 0.3 mm 0 m/s 749 mmHg 81%
    06:00 +12°C° 0.3 mm 0 m/s 749 mmHg 83%
    07:00 +12°C° 0.1 mm 0 m/s 749 mmHg 82%
    08:00 +13°C° 0.1 mm 0 m/s 749 mmHg 80%
    09:00 +14°C° 0.1 mm 1 m/s 749 mmHg 78%
    10:00 +15°C° 0.1 mm 1 m/s 749 mmHg 73%
    11:00 +18°C° 0.1 mm 1 m/s 749 mmHg 68%
    12:00 +19°C° 0.1 mm 1 m/s 748 mmHg 63%
    13:00 +18°C° 0.2 mm 2 m/s 748 mmHg 64%
    14:00 +18°C° 0.2 mm 2 m/s 748 mmHg 66%
    15:00 +19°C° 0.2 mm 3 m/s 748 mmHg 68%
    16:00 +18°C° 0.2 mm 3 m/s 748 mmHg 68%
    17:00 +17°C° 0.2 mm 3 m/s 747 mmHg 68%
    18:00 +17°C° 0.2 mm 3 m/s 747 mmHg 69%
    19:00 +14°C° 0 mm 3 m/s 748 mmHg 74%
    20:00 +13°C° 0 mm 3 m/s 748 mmHg 78%
    21:00 +11°C° 0 mm 4 m/s 748 mmHg 83%
    22:00 +11°C° 0 mm 3 m/s 748 mmHg 84%
    23:00 +10°C° 0 mm 3 m/s 748 mmHg 85%

    Demain, 20 Juin, Jeudi

    Heure Température Précipitation Vent Pression Humidité
    00:00 +10°C° 0 mm 3 m/s 748 mmHg 87%
    01:00 +10°C° 0 mm 3 m/s 748 mmHg 87%
    02:00 +10°C° 0 mm 3 m/s 748 mmHg 87%
    03:00 +10°C° 0 mm 3 m/s 748 mmHg 88%
    04:00 +10°C° 0 mm 3 m/s 748 mmHg 85%
    05:00 +11°C° 0 mm 4 m/s 748 mmHg 83%
    06:00 +11°C° 0 mm 4 m/s 749 mmHg 80%
    07:00 +12°C° 0 mm 5 m/s 749 mmHg 75%
    08:00 +13°C° 0 mm 5 m/s 749 mmHg 70%
    09:00 +13°C° 0 mm 5 m/s 749 mmHg 64%
    10:00 +14°C° 0 mm 5 m/s 750 mmHg 62%
    11:00 +14°C° 0 mm 6 m/s 750 mmHg 60%
    12:00 +15°C° 0 mm 6 m/s 750 mmHg 58%
    13:00 +15°C° 0 mm 6 m/s 750 mmHg 58%
    14:00 +15°C° 0 mm 6 m/s 750 mmHg 58%
    15:00 +15°C° 0 mm 6 m/s 750 mmHg 57%
    16:00 +15°C° 0 mm 6 m/s 751 mmHg 61%
    17:00 +14°C° 0 mm 6 m/s 751 mmHg 64%
    18:00 +13°C° 0 mm 6 m/s 751 mmHg 67%
    19:00 +12°C° 0 mm 5 m/s 751 mmHg 72%
    20:00 +11°C° 0 mm 4 m/s 752 mmHg 77%
    21:00 +10°C° 0 mm 4 m/s 752 mmHg 81%
    22:00 +9°C° 0 mm 3 m/s 752 mmHg 82%
    23:00 +9°C° 0 mm 3 m/s 752 mmHg 83%

    Après-demain, 21 Juin, Vendredi

    Heure Température Précipitation Vent Pression Humidité
    00:00 +9°C° 0 mm 3 m/s 753 mmHg 83%
    01:00 +8°C° 0 mm 3 m/s 753 mmHg 84%
    02:00 +8°C° 0 mm 2 m/s 753 mmHg 84%
    03:00 +7°C° 0 mm 2 m/s 753 mmHg 85%
    04:00 +8°C° 0 mm 2 m/s 753 mmHg 82%
    05:00 +9°C° 0 mm 3 m/s 753 mmHg 79%
    06:00 +10°C° 0 mm 3 m/s 754 mmHg 76%
    07:00 +11°C° 0 mm 3 m/s 754 mmHg 72%
    08:00 +12°C° 0 mm 4 m/s 754 mmHg 69%
    09:00 +13°C° 0 mm 4 m/s 755 mmHg 65%
    10:00 +13°C° 0 mm 4 m/s 755 mmHg 63%
    11:00 +14°C° 0 mm 5 m/s 755 mmHg 60%
    12:00 +15°C° 0 mm 5 m/s 755 mmHg 58%
    13:00 +15°C° 0.1 mm 5 m/s 756 mmHg 58%
    14:00 +15°C° 0.1 mm 5 m/s 756 mmHg 59%
    15:00 +15°C° 0.1 mm 5 m/s 756 mmHg 59%
    16:00 +15°C° 0 mm 5 m/s 756 mmHg 62%
    17:00 +15°C° 0 mm 5 m/s 756 mmHg 64%
    18:00 +14°C° 0 mm 4 m/s 757 mmHg 66%
    19:00 +13°C° 0 mm 4 m/s 757 mmHg 71%
    20:00 +11°C° 0 mm 4 m/s 757 mmHg 76%
    21:00 +10°C° 0 mm 3 m/s 758 mmHg 81%
    22:00 +9°C° 0 mm 3 m/s 758 mmHg 81%
    23:00 +9°C° 0 mm 2 m/s 758 mmHg 82%

    22 Juin, Samedi

    Heure Température Précipitation Vent Pression Humidité
    00:00 +8°C° 0 mm 2 m/s 758 mmHg 82%
    01:00 +8°C° 0 mm 2 m/s 758 mmHg 84%
    02:00 +8°C° 0 mm 2 m/s 758 mmHg 84%
    03:00 +8°C° 0 mm 2 m/s 758 mmHg 84%
    04:00 +9°C° 0 mm 2 m/s 758 mmHg 82%
    05:00 +9°C° 0 mm 3 m/s 758 mmHg 79%
    06:00 +10°C° 0 mm 3 m/s 758 mmHg 76%
    07:00 +12°C° 0 mm 3 m/s 758 mmHg 71%
    08:00 +13°C° 0 mm 3 m/s 758 mmHg 67%
    09:00 +16°C° 0 mm 3 m/s 758 mmHg 62%
    10:00 +17°C° 0 mm 3 m/s 758 mmHg 61%
    11:00 +17°C° 0 mm 3 m/s 758 mmHg 60%
    12:00 +18°C° 0 mm 3 m/s 758 mmHg 59%
    13:00 +18°C° 0.2 mm 3 m/s 758 mmHg 62%
    14:00 +18°C° 0.2 mm 4 m/s 758 mmHg 65%
    15:00 +18°C° 0.2 mm 4 m/s 758 mmHg 69%
    16:00 +18°C° 0.2 mm 3 m/s 758 mmHg 69%
    17:00 +17°C° 0.2 mm 3 m/s 758 mmHg 70%
    18:00 +17°C° 0.2 mm 2 m/s 758 mmHg 71%
    19:00 +16°C° 0.1 mm 2 m/s 759 mmHg 74%
    20:00 +15°C° 0.1 mm 1 m/s 759 mmHg 78%
    21:00 +14°C° 0.1 mm 1 m/s 760 mmHg 81%
    22:00 +13°C° 0 mm 1 m/s 760 mmHg 82%
    23:00 +12°C° 0 mm 1 m/s 760 mmHg 82%

    23 Juin, Dimanche

    Heure Température Précipitation Vent Pression Humidité
    00:00 +12°C° 0 mm 1 m/s 760 mmHg 83%
    01:00 +12°C° 0 mm 1 m/s 760 mmHg 84%
    02:00 +11°C° 0 mm 1 m/s 760 mmHg 85%
    03:00 +11°C° 0 mm 1 m/s 760 mmHg 86%
    04:00 +12°C° 0 mm 1 m/s 760 mmHg 84%
    05:00 +12°C° 0 mm 0 m/s 760 mmHg 83%
    06:00 +13°C° 0 mm 0 m/s 760 mmHg 82%
    07:00 +15°C° 0 mm 1 m/s 760 mmHg 78%
    08:00 +16°C° 0 mm 2 m/s 761 mmHg 74%
    09:00 +17°C° 0 mm 2 m/s 761 mmHg 69%
    10:00 +18°C° 0 mm 3 m/s 761 mmHg 68%
    11:00 +18°C° 0 mm 3 m/s 761 mmHg 66%
    12:00 +18°C° 0 mm 4 m/s 761 mmHg 64%
    13:00 +18°C° 0.1 mm 4 m/s 761 mmHg 65%
    14:00 +17°C° 0.1 mm 5 m/s 761 mmHg 65%
    15:00 +17°C° 0.1 mm 5 m/s 761 mmHg 66%
    16:00 +16°C° 0 mm 5 m/s 761 mmHg 66%
    17:00 +16°C° 0 mm 5 m/s 761 mmHg 67%
    18:00 +15°C° 0 mm 5 m/s 761 mmHg 67%
    19:00 +14°C° 0 mm 4 m/s 761 mmHg 69%
    20:00 +13°C° 0 mm 4 m/s 761 mmHg 72%
    21:00 +12°C° 0 mm 3 m/s 762 mmHg 74%
    22:00 +12°C° 0 mm 3 m/s 762 mmHg 76%
    23:00 +12°C° 0 mm 3 m/s 762 mmHg 77%

    24 Juin, Lundi

    Heure Température Précipitation Vent Pression Humidité
    00:00 +11°C° 0 mm 3 m/s 762 mmHg 78%
    01:00 +11°C° 0 mm 3 m/s 762 mmHg 81%
    02:00 +11°C° 0 mm 3 m/s 762 mmHg 83%
    03:00 +11°C° 0 mm 3 m/s 762 mmHg 86%
    04:00 +11°C° 0 mm 4 m/s 761 mmHg 84%
    05:00 +12°C° 0 mm 4 m/s 761 mmHg 82%
    06:00 +12°C° 0 mm 5 m/s 761 mmHg 81%
    07:00 +12°C° 0 mm 5 m/s 761 mmHg 81%
    08:00 +12°C° 0 mm 4 m/s 761 mmHg 82%
    09:00 +12°C° 0 mm 4 m/s 761 mmHg 83%
    10:00 +12°C° 0.1 mm 4 m/s 761 mmHg 83%
    11:00 +12°C° 0.1 mm 5 m/s 761 mmHg 84%
    12:00 +12°C° 0.1 mm 5 m/s 761 mmHg 85%
    13:00 +12°C° 0.7 mm 5 m/s 761 mmHg 87%
    14:00 +12°C° 0.7 mm 5 m/s 761 mmHg 90%
    15:00 +11°C° 0.7 mm 6 m/s 761 mmHg 93%
    16:00 +11°C° 1 mm 6 m/s 761 mmHg 94%
    17:00 +11°C° 1 mm 7 m/s 761 mmHg 95%
    18:00 +11°C° 1 mm 7 m/s 761 mmHg 96%
    19:00 +11°C° 2.1 mm 7 m/s 761 mmHg 96%
    20:00 +11°C° 2.1 mm 8 m/s 761 mmHg 96%
    21:00 +11°C° 2.1 mm 8 m/s 762 mmHg 96%
    22:00 +11°C° 1.6 mm 8 m/s 762 mmHg 96%
    23:00 +10°C° 1.6 mm 7 m/s 762 mmHg 95%
    Voir plus